Regional Weather Roundup
Issued by NWS Newport/Morehead, NC

Current Version | Previous Version | Text Only | Print | Product List | Glossary Off
Versions: 1 2 3 4 5 6 7 8 9 10 11 12 13 14 15 16 17 18 19 20 21 22 23 24 25 26 27 28 29 30 31 32 33 34 35 36 37 38 39 40 41 42 43 44 45 46 47 48 49 50
000 ASUS42 KMHX 300622 RWRMHX WEATHER ROUNDUP FOR EASTERN NORTH CAROLINA NATIONAL WEATHER SERVICE NEWPORT/MOREHEAD CITY NC 100 AM EST FRI JAN 30 2015 NOTE: "FAIR" INDICATES FEW OR NO CLOUDS BELOW 12,000 FEET WITH NO SIGNIFICANT WEATHER AND/OR OBSTRUCTIONS TO VISIBILITY NCZ015>017-031-032-045>047-102-103-300700- NORTH COAST CITY SKY/WX TMP DP RH WIND PRES REMARKS EDENTON PTCLDY 42 34 72 SW8 30.02F ELIZABETH CITY CLOUDY 42 31 64 S12 30.02F KITTY HAWK CLOUDY 42 32 68 SW6 30.03F MANTEO CLOUDY 43 36 75 S6 30.05F $$ NCZ045>047-081-094-103-104-300700- CENTRAL COAST CITY SKY/WX TMP DP RH WIND PRES REMARKS FRISCO CLOUDY 51 45 79 W9 30.06F SWANQUARTER NOT AVBL $$ NCZ095-097-098-100-101-300700- SOUTHERN COAST CITY SKY/WX TMP DP RH WIND PRES REMARKS BEAUFORT CLOUDY 52 46 80 W12 30.08F CEDAR ISLAND NOT AVBL JACKSONVILLE CLOUDY 49 41 74 SW8 30.07F PINEY ISLAND N/A N/A N/A N/A MISG 30.07F WILMINGTON LGT RAIN 49 45 86 SW9 30.08F $$ NCZ011>013-027>030-043-044-078>080-089-090>093-098-300700- COASTAL PLAIN CITY SKY/WX TMP DP RH WIND PRES REMARKS AHOSKIE PTCLDY 39 27 63 S5 30.01F CLINTON MOCLDY 45 39 79 S3 30.05F ELIZABETHTOWN CLOUDY 49 40 71 SW6 30.05F GOLDSBORO PTCLDY 42 42 97 CALM 30.02F GREENVILLE CLEAR 41 32 70 SW9 30.04F HAVELOCK CLOUDY 51 42 71 SW12 30.08F KENANSVILLE MOCLDY 44 38 77 CALM 30.05F KINSTON PTCLDY 44 37 76 S8 30.05F NEW BERN LGT RAIN 50 40 68 SW8 30.07F RICHLANDS CLOUDY 46 37 71 SW8 30.06F ROCKY MOUNT PTCLDY 40 28 62 S7 30.02F WASHINGTON MOCLDY 42 32 67 S7 30.05F WHITEVILLE LGT RAIN 48 43 82 S7 30.07F $$ AMZ130-135-150-152-154-156-158-170-250-252-270-ANZ085-086-088-633-658-670-300700- MARINE OBSERVATIONS STATION/POSITION TIME TEMP WIND PRES WAVE SWELL AIR SEA DIR/SP/G HT/PER HT/PER (UTC) (F) (DEG/KT/KT) (MB) (FT/S) (FT/S) CHESAPEAKE LIGHT 0600 42 210/ 20/ 21 1015.8 64 E VA BEACH 0600 47 49 220/ 17/ 21 1016.6 4/ 5 2/11 DUCK 0600 43 43 200/ 10/ 14 1015.9 2 E DUCK 0600 42 N/A 2/11 2/11 10 NE DUCK 0600 44 N/A 3/12 2/12 OREGON INLET 0600 44 42 220/ 8/ 9 1017.4 13E OREGON INLT 0600 43 N/A 3/12 2/12 HATTERAS CG 0600 49 44 250/ 5/ 7 1018.1 DIAMOND BUOY 0600 61 71 240/ 23/ 31 1017.5 6/ 5 3/12 17 S OCRACOKE NOT AVBL CAPE LOOKOUT 0600 55 250/ 13/ 15 1018.1 BEAUFORT LAB 0600 53 46 250/ 6/ 11 1017.4 27 SE WRIGHTSVLE NOT AVBL 5 SE WRIGHTSVLE 0600 54 52 250/ 14/ 17 1018.7 225 S CAPE HAT 0536 60 72 240/ 12/ 16 1022.3 5/10 5/10 41 SE CHARLESTON 0600 63 68 240/ 21/ 27 1019.5 4/ 5 2/10 $$

USA.gov is the U.S. government's official web portal to all federal, state and local government web resources and services.